STARLINK-1209, 45206

Orbit data source: Space-Track

STARLINK-1209, 45206 is a payload satellite owned by SpaceX/Seattle (US) in LEO that was launched on Mon, 17 Feb 2020 UTC via an FALCON 9 launch vehicle from the Air Force Eastern Test Range (AFETR). Payload-class satellites include a variety of spacecraft equipped with specific instruments for various scientific and technological missions. These include communications satellites like Starlink; space stations such as the ISS; scientific satellites like the Hubble; Earth observation satellites from companies like Planet Labs, Umbra, and HawkEye 360; GPS; miniature CubeSats for education and research; and military/defense satellites.

Loading next visibility...
Identifier
45206, 2020-012AE
Orbit
LEO
Country
Flag of USUS
Related business
Manufacturer
SpaceX/Seattle
Mission
Partially operational Commercial Communications
Bus & Motor
STARLINK, Unknown motor
Mass
260 kg wet, ~248 kg dry
Launch date (UTC)
2020-02-17 (6 years ago)
Launch vehicle
FALCON 9
Launch site
Air Force Eastern Test Range (AFETR)
Object type
Payload
Rocket body
Debris
Shape & HBR
Box + 1 Pan, 10.1 m
Radar Cross Section
13.562 m², Large (>1 m²)

Expand to show TLE details & history
Last TLE update: 17 hours ago

TLE from 17 hours ago
0 STARLINK-1209
1 45206U 20012AE  25309.17428125  .00048300  00000-0  16127-2 0  9995
2 45206  53.0551 202.4090 0002180 111.9395 248.1837 15.30587578315725
Epoch: 2025-11-05T04:10Z
TLE epoch observation values (Epoch: 2025-11-05T04:10:57.899Z)
Latitude
0.00005°
Longitude
95.01705°
Altitude
475.502 km
Speed
7.629 km/s
True Right ascension
13h 29m 38s
True Declination
0° 00' 00"
Sunlit
Object was in daylight at epoch
Visualization orbit readout
Latitude
Unknown
Longitude
Unknown
Altitude
Unknown
Speed
Unknown
Apparent Right ascension
Unknown
Apparent Declination
Unknown
Sunlit
N/A
Visualization observer readout
Local Sidereal Time
16:54:02
Azimuth
Unknown
Elevation
Unknown
Doppler factor
Unknown
Orbital elements
Apogee altitude
475.825 km
Perigee altitude
472.838 km
Semi-major axis
6,852.468 km
Eccentricity
0.00022
Inclination
53.0551°
RAAN
202.409°
Arg. of periapsis
111.9395°
True anomaly
248.16051°
Mean anomaly
248.1837°
Eccentric anomaly
248.17211°
Mean motion
3.82624 °/min
Orbital period
94.09 mins
BSTAR
0.0016127
Loading maneuver chart data...
Computing Atmospheric mass density...

Documentation

Showing up to 5 results
|